Regional Weather Roundup
Issued by NWS

Home | Current Version | Previous Version | Text Only | Print | Product List | Glossary Off
Versions: 1 2 3 4 5 6 7 8 9 10 11 12 13 14 15 16 17 18 19 20 21 22 23 24 25 26 27 28 29 30 31 32 33 34 35 36 37 38 39 40 41 42 43 44 45 46 47 48 49 50

000
ASUS43 KOAX 120010
RWRNE

WEATHER ROUNDUP FOR NEBRASKA
NATIONAL WEATHER SERVICE OMAHA NE
600 PM CST MON DEC 11 2017

NOTES: SATELLITE DATA IS BEING USED TO AUGMENT CLOUD COVER ABOVE
       12000 FEET.
       "FAIR" INDICATES FEW OR NO CLOUDS BELOW 12,000 FEET WITH NO
       SIGNIFICANT WEATHER AND/OR OBSTRUCTIONS TO VISIBILITY.


NEZ001>004-019>022-054>056-120100-
NEBRASKA PANHANDLE

CITY           SKY/WX    TMP DP  RH WIND       PRES   REMARKS
SCOTTSBLUFF    CLEAR     43  13  29 NW15      30.38R
6HR MIN TEMP:  43; 6HR MAX TEMP:  53;

ALLIANCE       CLEAR     34  13  41 N10       30.35R WCI  26
6HR MIN TEMP:  34; 6HR MAX TEMP:  50;

CHADRON        CLEAR     38  16  40 N9        30.38R WCI  31
6HR MIN TEMP:  38; 6HR MAX TEMP:  48;

GORDON         FAIR      35  26  68 N10       30.35R WCI  28
6HR MIN TEMP:  35; 6HR MAX TEMP:  45;

KIMBALL        CLEAR     40  10  29 NW8       30.38R WCI  34
SIDNEY         PTCLDY    42  13  30 N13       30.36R
6HR MIN TEMP:  42; 6HR MAX TEMP:  53;

$$

NEZ057>060-069>072-079>082-120100-
SOUTHWEST NEBRASKA

CITY           SKY/WX    TMP DP  RH WIND       PRES   REMARKS
NORTH PLATTE   CLEAR     39  26  59 N9        30.33R WCI  33
6HR MIN TEMP:  39; 6HR MAX TEMP:  52;

IMPERIAL       MOCLDY    42  15  33 N12       30.33R
6HR MIN TEMP:  42; 6HR MAX TEMP:  54;

LEXINGTON      MOCLDY    41  28  58 N15       30.32R
MCCOOK         CLOUDY    47  24  40 N26G36    30.31R
6HR MIN TEMP:  47; 6HR MAX TEMP:  57;

OGALLALA       PTCLDY    41  20  43 N10       30.35R
$$

NEZ005>010-023>029-035>040-094-120100-
NORTH CENTRAL NEBRASKA

CITY           SKY/WX    TMP DP  RH WIND       PRES   REMARKS
VALENTINE      CLOUDY    40  29  64 NW15G21   30.33R WCI  32
6HR MIN TEMP:  39; 6HR MAX TEMP:  43; 6HR PCP: TRACE;

AINSWORTH      CLOUDY    35  34  95 N14       30.31R WCI  26
BROKEN BOW     CLOUDY    39  29  67 N23G32    30.30R WCI  28
6HR MIN TEMP:  39; 6HR MAX TEMP:  49;

O`NEILL        CLOUDY    37  30  75 N20G30    30.28R WCI  27
ORD            MOCLDY    38  30  73 NW22G33   30.29R WCI  27
6HR MIN TEMP:  38; 6HR MAX TEMP:  46; 6HR PCP: TRACE;

THEDFORD       CLOUDY    41  29  63 N16G22    30.33R
$$

NEZ041-046>049-061>064-073>077-083>087-120100-
SOUTH CENTRAL NEBRASKA

CITY           SKY/WX    TMP DP  RH WIND       PRES   REMARKS
GRAND ISLAND   CLOUDY    40  31  70 N25G31    30.28R WCI  29
6HR MIN TEMP:  40; 6HR MAX TEMP:  47;

AURORA         CLOUDY    40  31  69 N26G33    30.27R WCI  29
HASTINGS       CLOUDY    41  28  60 N24G32    30.28R
6HR MIN TEMP:  41; 6HR MAX TEMP:  49;

HEBRON         CLOUDY    45  30  56 N24G30    30.24R
HOLDREGE       CLOUDY    42  29  61 N16G26    30.30R
KEARNEY        CLOUDY    41  28  60 N18       30.31R
YORK           CLOUDY    39  32  75 N14       30.25R WCI  31
$$

NEZ011>018-030>034-042>045-120100-
NORTHEAST NEBRASKA

CITY           SKY/WX    TMP DP  RH WIND       PRES   REMARKS
NORFOLK        CLOUDY    38  31  76 N15       30.23R WCI  29
6HR MIN TEMP:  38; 6HR MAX TEMP:  44; 6HR PCP: TRACE;

ALBION         CLOUDY    40  31  69 N22G37    30.26R WCI  30
BLAIR          CLOUDY    38  28  66 NW16G23   30.17R WCI  29
COLUMBUS       CLOUDY    40  30  67 NW25G32   30.24R WCI  29
FREMONT        PTCLDY    38  28  65 NW21G30   30.21R WCI  28
TEKAMAH        PTCLDY    37  24  59 NW22G33   30.20R WCI  26
6HR MIN TEMP:  37; 6HR MAX TEMP:  48;

WAYNE          MOCLDY    35  27  72 N22       30.23R WCI  23
$$

NEZ050>053-065>068-078-088>093-120100-
SOUTHEAST NEBRASKA

CITY           SKY/WX    TMP DP  RH WIND       PRES   REMARKS
LINCOLN        CLOUDY    42  32  67 N24G33    30.22R
6HR MIN TEMP:  42; 6HR MAX TEMP:  52; 6HR PCP: TRACE;

OMAHA EPPLEY   CLOUDY    39  26  59 N20       30.17R WCI  29
6HR MIN TEMP:  39; 6HR MAX TEMP:  48;

BEATRICE       CLOUDY    42  35  75 N22G30    30.22R
FALLS CITY     CLOUDY    43  31  62 NW22G36   30.14R
6HR MIN TEMP:  43; 6HR MAX TEMP:  54; 6HR PCP: TRACE;

NEBRASKA CITY  CLOUDY    41  30  65 N29G36    30.16R
PLATTSMOUTH    CLOUDY    40  28  62 NW26G38   30.16R WCI  29
$$

NEZ044-045-051>053-067-120100-
OMAHA AREA

CITY           SKY/WX    TMP DP  RH WIND       PRES   REMARKS
OMAHA EPPLEY   CLOUDY    39  26  59 N20       30.17R WCI  29
6HR MIN TEMP:  39; 6HR MAX TEMP:  48;

BLAIR          CLOUDY    38  28  66 NW16G23   30.17R WCI  29
FREMONT        PTCLDY    38  28  65 NW21G30   30.21R WCI  28
MILLARD        CLOUDY    41  28  60 N14G26    30.19R
OFFUTT AFB     CLOUDY    40  27  58 NW21G28   30.17R WCI  31
PLATTSMOUTH    CLOUDY    40  28  62 NW26G38   30.16R WCI  29
WAHOO          FAIR      40  28  64 N26G37    30.20R WCI  28
$$



USA.gov is the U.S. government's official web portal to all federal, state and local government web resources and services.